Time,TemperatureF,DewpointF,PressureIn,WindDirection,WindDirectionDegrees,WindSpeedMPH,WindSpeedGustMPH,Humidity,HourlyPrecipIn,Conditions,Clouds,dailyrainin,SoftwareType,DateUTC
2013-01-29 00:13:00,45.6,44.0,28.31,East,82,0.0,0.0,92,0.00,,,0.00,weatherlink.com 1.10,2013-01-29 05:13:00,
2013-01-29 00:28:00,46.0,44.0,28.31,East,82,0.0,0.0,94,0.00,,,0.00,weatherlink.com 1.10,2013-01-29 05:28:00,
2013-01-29 00:43:00,46.1,44.0,28.31,East,82,0.0,1.0,93,0.00,,,0.00,weatherlink.com 1.10,2013-01-29 05:43:00,
2013-01-29 00:58:00,46.0,44.0,28.30,East,82,0.0,1.0,93,0.00,,,0.00,weatherlink.com 1.10,2013-01-29 05:58:00,
2013-01-29 01:13:00,45.8,44.0,28.30,East,82,0.0,1.0,93,0.00,,,0.00,weatherlink.com 1.10,2013-01-29 06:13:00,
2013-01-29 01:28:00,45.9,44.0,28.30,ENE,77,0.0,2.0,93,0.00,,,0.00,weatherlink.com 1.10,2013-01-29 06:28:00,
2013-01-29 01:43:00,46.6,45.0,28.31,ENE,77,0.0,1.0,93,0.00,,,0.00,weatherlink.com 1.10,2013-01-29 06:43:00,
2013-01-29 01:58:00,46.3,44.0,28.31,ENE,77,0.0,1.0,92,0.00,,,0.00,weatherlink.com 1.10,2013-01-29 06:58:00,
2013-01-29 02:13:00,45.9,44.0,28.31,ENE,78,0.0,1.0,93,0.00,,,0.00,weatherlink.com 1.10,2013-01-29 07:13:00,
2013-01-29 02:28:00,45.9,44.0,28.32,ENE,77,0.0,1.0,94,0.00,,,0.00,weatherlink.com 1.10,2013-01-29 07:28:00,
2013-01-29 02:43:00,45.8,44.0,28.32,ENE,78,1.0,1.0,94,0.00,,,0.00,weatherlink.com 1.10,2013-01-29 07:43:00,
2013-01-29 02:58:00,45.6,44.0,28.32,ENE,78,0.0,0.0,95,0.00,,,0.00,weatherlink.com 1.10,2013-01-29 07:58:00,
2013-01-29 03:13:00,45.1,44.0,28.32,ENE,78,0.0,0.0,95,0.00,,,0.00,weatherlink.com 1.10,2013-01-29 08:13:00,
2013-01-29 03:28:00,45.4,44.0,28.31,ENE,77,0.0,1.0,95,0.00,,,0.00,weatherlink.com 1.10,2013-01-29 08:28:00,
2013-01-29 03:43:00,45.3,44.0,28.31,ENE,77,0.0,1.0,95,0.00,,,0.00,weatherlink.com 1.10,2013-01-29 08:43:00,
2013-01-29 03:58:00,44.9,44.0,28.31,ENE,77,0.0,1.0,95,0.00,,,0.00,weatherlink.com 1.10,2013-01-29 08:58:00,
2013-01-29 04:14:00,44.5,44.0,28.31,ENE,78,0.0,1.0,96,0.00,,,0.00,weatherlink.com 1.10,2013-01-29 09:14:00,
2013-01-29 04:29:00,44.5,44.0,28.31,ENE,78,0.0,1.0,96,0.00,,,0.00,weatherlink.com 1.10,2013-01-29 09:29:00,
2013-01-29 04:44:00,44.9,44.0,28.31,ENE,68,0.0,1.0,96,0.00,,,0.00,weatherlink.com 1.10,2013-01-29 09:44:00,
2013-01-29 04:59:00,44.9,44.0,28.31,ENE,68,0.0,1.0,96,0.00,,,0.00,weatherlink.com 1.10,2013-01-29 09:59:00,
2013-01-29 05:14:00,44.3,43.0,28.31,ENE,68,0.0,1.0,96,0.01,,,0.01,weatherlink.com 1.10,2013-01-29 10:14:00,
2013-01-29 05:29:00,44.3,44.0,28.32,ENE,68,0.0,1.0,97,0.01,,,0.01,weatherlink.com 1.10,2013-01-29 10:29:00,
2013-01-29 05:44:00,44.6,44.0,28.32,ENE,68,0.0,1.0,97,0.01,,,0.01,weatherlink.com 1.10,2013-01-29 10:44:00,
2013-01-29 05:59:00,44.5,44.0,28.32,ENE,68,0.0,1.0,97,0.01,,,0.01,weatherlink.com 1.10,2013-01-29 10:59:00,
2013-01-29 06:14:00,44.4,44.0,28.32,ENE,71,0.0,2.0,97,0.00,,,0.01,weatherlink.com 1.10,2013-01-29 11:14:00,
2013-01-29 06:29:00,44.4,44.0,28.32,East,82,1.0,1.0,97,0.00,,,0.01,weatherlink.com 1.10,2013-01-29 11:29:00,
2013-01-29 06:44:00,44.5,44.0,28.32,East,81,0.0,2.0,97,0.00,,,0.01,weatherlink.com 1.10,2013-01-29 11:44:00,
2013-01-29 06:59:00,45.1,44.0,28.32,ENE,70,0.0,2.0,97,0.00,,,0.01,weatherlink.com 1.10,2013-01-29 11:59:00,
2013-01-29 07:14:00,45.4,45.0,28.33,ENE,58,0.0,3.0,97,0.00,,,0.01,weatherlink.com 1.10,2013-01-29 12:14:00,
2013-01-29 07:29:00,45.7,45.0,28.33,ENE,72,0.0,1.0,97,0.00,,,0.01,weatherlink.com 1.10,2013-01-29 12:29:00,
2013-01-29 07:44:00,45.5,45.0,28.34,ENE,72,0.0,1.0,97,0.00,,,0.01,weatherlink.com 1.10,2013-01-29 12:44:00,
2013-01-29 07:59:00,45.5,45.0,28.34,ENE,75,2.0,3.0,97,0.00,,,0.01,weatherlink.com 1.10,2013-01-29 12:59:00,
2013-01-29 08:14:00,46.6,46.0,28.34,NE,44,0.0,1.0,98,0.00,,,0.01,weatherlink.com 1.10,2013-01-29 13:14:00,
2013-01-29 08:29:00,46.2,45.0,28.35,ENE,64,1.0,2.0,97,0.00,,,0.01,weatherlink.com 1.10,2013-01-29 13:29:00,
2013-01-29 08:44:00,46.6,46.0,28.35,ENE,68,0.0,2.0,97,0.00,,,0.01,weatherlink.com 1.10,2013-01-29 13:44:00,
2013-01-29 08:59:00,47.1,46.0,28.35,ENE,68,0.0,2.0,97,0.00,,,0.01,weatherlink.com 1.10,2013-01-29 13:59:00,
2013-01-29 09:14:00,48.0,47.0,28.36,ENE,68,0.0,1.0,97,0.00,,,0.01,weatherlink.com 1.10,2013-01-29 14:14:00,
2013-01-29 09:29:00,48.5,48.0,28.36,ENE,70,0.0,1.0,97,0.00,,,0.01,weatherlink.com 1.10,2013-01-29 14:29:00,
2013-01-29 09:44:00,48.7,48.0,28.36,ENE,68,0.0,1.0,96,0.00,,,0.01,weatherlink.com 1.10,2013-01-29 14:44:00,
2013-01-29 09:59:00,50.3,49.0,28.36,ENE,74,1.0,3.0,96,0.00,,,0.01,weatherlink.com 1.10,2013-01-29 14:59:00,
2013-01-29 10:14:00,53.1,52.0,28.37,ENE,77,0.0,1.0,95,0.00,,,0.01,weatherlink.com 1.10,2013-01-29 15:14:00,
2013-01-29 10:29:00,56.8,53.0,28.36,SW,215,3.0,4.0,87,0.00,,,0.01,weatherlink.com 1.10,2013-01-29 15:29:00,
2013-01-29 10:44:00,59.1,53.0,28.35,SW,217,1.0,6.0,81,0.00,,,0.01,weatherlink.com 1.10,2013-01-29 15:44:00,
2013-01-29 10:59:00,60.7,54.0,28.34,South,188,3.0,6.0,78,0.00,,,0.01,weatherlink.com 1.10,2013-01-29 15:59:00,
2013-01-29 11:14:00,62.2,54.0,28.34,SW,215,4.0,6.0,75,0.00,,,0.01,weatherlink.com 1.10,2013-01-29 16:14:00,
2013-01-29 11:30:00,63.5,55.0,28.33,SW,221,3.0,4.0,74,0.00,,,0.01,weatherlink.com 1.10,2013-01-29 16:30:00,
2013-01-29 11:45:00,65.5,55.0,28.32,SSW,204,3.0,8.0,69,0.00,,,0.01,weatherlink.com 1.10,2013-01-29 16:45:00,
2013-01-29 12:00:00,67.0,55.0,28.30,SW,231,4.0,5.0,65,0.00,,,0.01,weatherlink.com 1.10,2013-01-29 17:00:00,
2013-01-29 12:15:00,68.5,54.0,28.29,SW,232,4.0,7.0,60,0.00,,,0.01,weatherlink.com 1.10,2013-01-29 17:15:00,
2013-01-29 12:30:00,69.1,53.0,28.28,SW,229,3.0,9.0,57,0.00,,,0.01,weatherlink.com 1.10,2013-01-29 17:30:00,
2013-01-29 12:45:00,69.4,52.0,28.27,SSW,208,5.0,6.0,55,0.00,,,0.01,weatherlink.com 1.10,2013-01-29 17:45:00,
2013-01-29 13:00:00,70.5,53.0,28.27,SW,219,1.0,7.0,54,0.00,,,0.01,weatherlink.com 1.10,2013-01-29 18:00:00,
2013-01-29 13:15:00,71.6,53.0,28.26,SW,228,5.0,7.0,53,0.00,,,0.01,weatherlink.com 1.10,2013-01-29 18:15:00,
2013-01-29 13:30:00,72.0,53.0,28.25,SW,229,8.0,13.0,51,0.00,,,0.01,weatherlink.com 1.10,2013-01-29 18:30:00,
2013-01-29 13:45:00,71.3,52.0,28.25,WSW,239,2.0,13.0,51,0.00,,,0.01,weatherlink.com 1.10,2013-01-29 18:45:00,
2013-01-29 14:00:00,71.2,53.0,28.24,SSW,193,3.0,8.0,52,0.00,,,0.01,weatherlink.com 1.10,2013-01-29 19:00:00,
2013-01-29 14:15:00,72.0,53.0,28.23,South,183,2.0,7.0,52,0.00,,,0.01,weatherlink.com 1.10,2013-01-29 19:15:00,
2013-01-29 14:30:00,72.6,53.0,28.23,South,185,5.0,9.0,51,0.00,,,0.01,weatherlink.com 1.10,2013-01-29 19:30:00,
2013-01-29 14:45:00,72.9,54.0,28.23,SSW,197,4.0,10.0,51,0.00,,,0.01,weatherlink.com 1.10,2013-01-29 19:45:00,
2013-01-29 15:01:00,71.5,53.0,28.23,SSW,192,3.0,6.0,53,0.00,,,0.01,weatherlink.com 1.10,2013-01-29 20:01:00,
2013-01-29 15:15:00,72.5,54.0,28.23,South,169,5.0,10.0,52,0.00,,,0.01,weatherlink.com 1.10,2013-01-29 20:15:00,
2013-01-29 15:30:00,72.0,54.0,28.23,SW,224,8.0,10.0,53,0.00,,,0.01,weatherlink.com 1.10,2013-01-29 20:30:00,
2013-01-29 15:45:00,71.0,53.0,28.23,SSW,210,3.0,7.0,54,0.00,,,0.01,weatherlink.com 1.10,2013-01-29 20:45:00,
2013-01-29 16:00:00,70.1,53.0,28.23,SSW,195,1.0,9.0,55,0.00,,,0.01,weatherlink.com 1.10,2013-01-29 21:00:00,
2013-01-29 16:15:00,69.4,53.0,28.23,South,177,2.0,4.0,56,0.00,,,0.01,weatherlink.com 1.10,2013-01-29 21:15:00,
2013-01-29 16:30:00,68.8,53.0,28.22,South,190,0.0,4.0,58,0.00,,,0.01,weatherlink.com 1.10,2013-01-29 21:30:00,
2013-01-29 16:45:00,66.2,53.0,28.22,NNW,336,0.0,9.0,62,0.00,,,0.01,weatherlink.com 1.10,2013-01-29 21:45:00,
2013-01-29 17:00:00,64.1,52.0,28.22,WSW,246,0.0,4.0,65,0.00,,,0.01,weatherlink.com 1.10,2013-01-29 22:00:00,
2013-01-29 17:15:00,62.1,51.0,28.22,ESE,120,0.0,3.0,68,0.00,,,0.01,weatherlink.com 1.10,2013-01-29 22:15:00,
2013-01-29 17:30:00,59.8,51.0,28.21,ESE,115,0.0,2.0,72,0.00,,,0.01,weatherlink.com 1.10,2013-01-29 22:30:00,
2013-01-29 17:45:00,56.6,50.0,28.22,ESE,112,0.0,1.0,78,0.00,,,0.01,weatherlink.com 1.10,2013-01-29 22:45:00,
2013-01-29 18:00:00,55.2,49.0,28.22,ESE,109,0.0,2.0,80,0.00,,,0.01,weatherlink.com 1.10,2013-01-29 23:00:00,
2013-01-29 18:15:00,53.9,49.0,28.22,ESE,105,0.0,2.0,84,0.00,,,0.01,weatherlink.com 1.10,2013-01-29 23:15:00,
2013-01-29 18:30:00,53.2,48.0,28.23,ESE,117,1.0,2.0,83,0.00,,,0.01,weatherlink.com 1.10,2013-01-29 23:30:00,
2013-01-29 18:45:00,51.9,48.0,28.23,ESE,102,0.0,2.0,85,0.00,,,0.01,weatherlink.com 1.10,2013-01-29 23:45:00,
2013-01-29 19:00:00,51.5,48.0,28.22,ESE,108,1.0,2.0,86,0.00,,,0.01,weatherlink.com 1.10,2013-01-30 00:00:00,
2013-01-29 19:15:00,51.2,47.0,28.22,ESE,105,0.0,1.0,85,0.00,,,0.01,weatherlink.com 1.10,2013-01-30 00:15:00,
2013-01-29 19:30:00,49.3,45.0,28.22,ESE,107,0.0,1.0,85,0.00,,,0.01,weatherlink.com 1.10,2013-01-30 00:30:00,
2013-01-29 19:45:00,47.8,45.0,28.23,ESE,107,0.0,0.0,90,0.00,,,0.01,weatherlink.com 1.10,2013-01-30 00:45:00,
2013-01-29 20:00:00,46.2,44.0,28.23,ESE,107,0.0,0.0,90,0.00,,,0.01,weatherlink.com 1.10,2013-01-30 01:00:00,
2013-01-29 20:15:00,45.1,42.0,28.23,ESE,108,0.0,0.0,90,0.00,,,0.01,weatherlink.com 1.10,2013-01-30 01:15:00,
2013-01-29 20:31:00,44.9,43.0,28.22,ESE,107,0.0,0.0,93,0.00,,,0.00,weatherlink.com 1.10,2013-01-30 01:31:00,
2013-01-29 20:46:00,44.0,42.0,28.22,ESE,108,0.0,0.0,93,0.00,,,0.00,weatherlink.com 1.10,2013-01-30 01:46:00,
2013-01-29 21:01:00,43.8,42.0,28.21,SE,126,0.0,1.0,94,0.00,,,0.00,weatherlink.com 1.10,2013-01-30 02:01:00,
2013-01-29 21:16:00,42.5,40.0,28.21,SE,126,0.0,0.0,92,0.00,,,0.00,weatherlink.com 1.10,2013-01-30 02:16:00,
2013-01-29 21:31:00,41.0,39.0,28.22,SE,124,0.0,0.0,94,0.00,,,0.00,weatherlink.com 1.10,2013-01-30 02:31:00,
2013-01-29 21:46:00,41.0,40.0,28.22,SE,124,0.0,0.0,95,0.00,,,0.00,weatherlink.com 1.10,2013-01-30 02:46:00,
2013-01-29 22:01:00,41.3,40.0,28.22,SSE,148,0.0,2.0,96,0.00,,,0.00,weatherlink.com 1.10,2013-01-30 03:01:00,
2013-01-29 22:16:00,42.7,42.0,28.21,ESE,110,0.0,2.0,97,0.00,,,0.00,weatherlink.com 1.10,2013-01-30 03:16:00,
2013-01-29 22:31:00,42.3,41.0,28.21,West,269,0.0,1.0,96,0.00,,,0.00,weatherlink.com 1.10,2013-01-30 03:31:00,
2013-01-29 22:46:00,43.1,42.0,28.20,SE,142,0.0,2.0,97,0.00,,,0.00,weatherlink.com 1.10,2013-01-30 03:46:00,
2013-01-29 23:01:00,43.3,42.0,28.19,ESE,114,0.0,1.0,96,0.00,,,0.00,weatherlink.com 1.10,2013-01-30 04:01:00,
2013-01-29 23:16:00,43.5,42.0,28.19,ESE,112,0.0,3.0,95,0.00,,,0.00,weatherlink.com 1.10,2013-01-30 04:16:00,
2013-01-29 23:31:00,42.9,42.0,28.19,ESE,112,0.0,1.0,96,0.00,,,0.00,weatherlink.com 1.10,2013-01-30 04:31:00,
2013-01-29 23:46:00,43.2,42.0,28.18,ESE,116,0.0,1.0,95,0.00,,,0.00,weatherlink.com 1.10,2013-01-30 04:46:00,